Location: ?????
(32.7281°N, 34.9563°E)
Time: 18:31:01
(UTC+00:00)

Okean-O - Pass Details

Date: 29 October 2020
Orbit: 638 x 641 km, 98.2° (Epoch: 30 November)

Event Time Altitude Azimuth Distance (km) Brightness Sun altitude
Rises 16:17:10 0° 166° (SSE) 2,930 5.9 -18.5°
Reaches altitude 10° 16:19:22 10° 165° (SSE) 2,025 5.1 -18.9°
Maximum altitude 16:23:47 87° 78° (ENE) 646 2.5 -19.9°
Drops below altitude 10° 16:28:13 10° 348° (NNW) 2,037 5.3 -20.8°
Sets 16:30:26 0° 349° (NNW) 2,949 6.1 -21.3°
